CW0060 Weather Reports


Display with metric or nautical units.
time (UTC)temp
F
wind
direction
speed
MPH
gust
MPH
rain 1hr
in
rain 24hr
in
rain mn
in
humidity
%
barometer
mb
20260508065214 44 46 1.0 3.0 0.00 0.01 0.00 95 1017.8
20260508064705 44 245 2.0 3.0 0.00 0.01 0.00 94 1017.7
20260508064206 44 240 2.0 3.0 0.00 0.01 0.00 94 1017.7
20260508063205 43 258 1.0 3.0 0.00 0.01 0.00 94 1017.6
20260508062705 43 231 1.0 3.0 0.00 0.01 0.00 94 1017.5
20260508062204 43 178 2.0 3.0 0.00 0.01 0.00 93 1017.5
20260508061705 42 197 1.0 3.0 0.00 0.01 0.00 93 1017.5
20260508055705 42 178 1.0 2.0 0.00 0.02 0.00 93 1017.2
20260508055206 42 178 1.0 2.0 0.00 0.02 0.00 93 1017.2
20260508054206 41 89 0.0 2.0 0.00 0.02 0.00 93 1017.2
20260508053706 41 269 1.0 2.0 0.00 0.02 0.00 92 1017.2
20260508053205 41 344 1.0 2.0 0.00 0.02 0.00 93 1017.1
20260508052705 41 9 1.0 2.0 0.00 0.02 0.00 92 1017.2
20260508052205 41 1 1.0 2.0 0.00 0.02 0.00 92 1017.1
20260508051706 41 46 1.0 2.0 0.00 0.02 0.00 92 1017.1
20260508051230 41 56 1.0 2.0 0.00 0.02 0.00 92 1017.1
20260508050205 41 46 1.0 3.0 0.00 0.02 0.00 92 1017.1
20260508045705 41 89 1.0 2.0 0.00 0.02 0.00 92 1017.0
20260508045205 41 151 1.0 2.0 0.00 0.02 0.00 92 1016.8
20260508044705 41 127 1.0 2.0 0.00 0.02 0.00 92 1016.7
20260508044206 41 108 1.0 2.0 0.00 0.02 0.00 92 1016.7
20260508043705 41 178 1.0 2.0 0.00 0.02 0.00 92 1016.7
20260508043205 40 89 1.0 2.0 0.00 0.02 0.00 92 1016.6
20260508042706 40 46 1.0 2.0 0.00 0.02 0.00 92 1016.6
20260508042206 40 121 1.0 2.0 0.00 0.02 0.00 92 1016.6
20260508041705 40 101 1.0 2.0 0.00 0.02 0.00 92 1016.6
20260508040705 40 108 1.0 2.0 0.00 0.02 0.00 92 1016.6
20260508040205 40 135 0.0 2.0 0.00 0.03 0.00 91 1016.5
20260508035705 40 135 0.0 2.0 0.00 0.03 0.00 91 1016.5
20260508035206 40 178 0.0 2.0 0.00 0.03 0.00 91 1016.4
20260508034705 40 135 1.0 2.0 0.00 0.03 0.00 91 1016.4
20260508034206 40 127 1.0 2.0 0.00 0.04 0.00 91 1016.4
20260508033705 40 89 1.0 2.0 0.00 0.04 0.00 91 1016.3
20260508032705 40 20 1.0 2.0 0.00 0.04 0.00 91 1016.2
20260508032205 40 89 1.0 2.0 0.00 0.05 0.00 91 1016.2
20260508031705 40 104 0.0 2.0 0.00 0.05 0.00 91 1016.3
20260508031205 40 63 0.0 2.0 0.00 0.06 0.00 91 1016.2
20260508030705 40 46 1.0 1.0 0.00 0.06 0.00 91 1016.2
20260508030205 40 104 1.0 2.0 0.00 0.06 0.00 91 1016.2
20260508025206 40 63 1.0 2.0 0.00 0.07 0.00 91 1016.1
20260508024705 40 135 0.0 1.0 0.00 0.07 0.00 91 1016.2
20260508024209 40 117 0.0 1.0 0.00 0.07 0.00 91 1016.2
20260508023705 40 314 0.0 1.0 0.00 0.07 0.00 91 1016.3
20260508023205 40 1 0.0 2.0 0.00 0.07 0.00 91 1016.3
20260508022705 41 178 0.0 2.0 0.00 0.07 0.00 91 1016.3
20260508021705 41 151 0.0 2.0 0.00 0.07 0.00 91 1016.3
20260508020705 41 89 0.0 1.0 0.00 0.07 0.00 91 1016.3
20260508020206 41 331 0.0 1.0 0.00 0.07 0.00 91 1016.3
20260508015204 41 28 0.0 2.0 0.00 0.07 0.00 91 1016.3
20260508014705 41 46 1.0 2.0 0.00 0.07 0.00 91 1016.3
20260508014209 41 142 1.0 2.0 0.00 0.07 0.00 91 1016.3
20260508013705 41 151 1.0 2.0 0.00 0.07 0.00 91 1016.2
20260508013206 41 20 0.0 2.0 0.00 0.07 0.00 91 1016.2
20260508012705 42 151 0.0 3.0 0.00 0.07 0.00 91 1016.2
20260508012205 42 46 1.0 3.0 0.00 0.08 0.00 90 1016.1
20260508011705 42 32 2.0 3.0 0.00 0.08 0.00 90 1016.1
20260508011206 42 79 1.0 3.0 0.00 0.08 0.00 90 1016.2
20260508010705 42 53 1.0 3.0 0.00 0.08 0.00 90 1016.3
20260508010206 42 89 1.0 3.0 0.00 0.08 0.00 90 1016.3
20260508005706 42 63 2.0 3.0 0.00 0.08 0.00 90 1016.3
20260508004723 42 63 2.0 3.0 0.00 0.08 0.00 90 1016.5
20260508004206 42 56 1.0 2.0 0.00 0.08 0.00 90 1016.5
20260508002705 43 101 1.0 2.0 0.00 0.08 0.00 90 1016.5
20260508002205 43 63 1.0 2.0 0.00 0.08 0.00 90 1016.5
20260508001705 43 124 1.0 2.0 0.00 0.08 0.00 90 1016.5
20260508001205 43 331 1.0 2.0 0.00 0.09 0.00 90 1016.5
20260508000706 43 151 1.0 2.0 0.00 0.09 0.00 90 1016.5
20260508000205 43 46 0.0 2.0 0.00 0.09 0.09 90 1016.5
20260507235705 43 46 0.0 2.0 0.00 0.10 0.09 89 1016.6
20260507235205 43 269 0.0 1.0 0.00 0.10 0.09 90 1016.5
20260507234705 44 89 0.0 2.0 0.00 0.11 0.09 90 1016.5
20260507234206 44 1 0.0 3.0 0.00 0.11 0.09 89 1016.6
20260507233704 44 46 1.0 3.0 0.00 0.12 0.09 89 1016.5
20260507233205 44 15 2.0 2.0 0.00 0.12 0.09 89 1016.6
20260507232705 44 40 1.0 2.0 0.00 0.13 0.09 89 1016.6
20260507232206 44 89 0.0 2.0 0.00 0.13 0.09 89 1016.8
20260507231705 44 63 0.0 2.0 0.00 0.13 0.09 89 1016.8
20260507231206 45 117 1.0 3.0 0.00 0.13 0.09 89 1016.8
20260507230705 45 46 1.0 3.0 0.00 0.13 0.09 89 1016.7
20260507230205 45 28 1.0 3.0 0.00 0.13 0.09 89 1016.7
20260507225706 45 102 2.0 3.0 0.00 0.13 0.09 89 1016.7
20260507225205 45 46 2.0 4.0 0.00 0.14 0.09 89 1016.7
20260507224705 46 51 2.0 4.0 0.00 0.14 0.09 89 1016.7
20260507224208 46 50 1.0 3.0 0.00 0.15 0.09 89 1016.7
20260507223706 46 108 1.0 2.0 0.00 0.15 0.09 89 1016.7
20260507223206 46 331 1.0 2.0 0.00 0.16 0.09 89 1016.6
20260507222706 46 56 1.0 2.0 0.00 0.17 0.09 89 1016.5
20260507222206 46 68 1.0 2.0 0.00 0.17 0.09 89 1016.6
20260507221705 47 28 1.0 2.0 0.00 0.18 0.09 88 1016.6
20260507221205 47 35 1.0 2.0 0.00 0.19 0.09 88 1016.6
20260507220705 47 89 0.0 1.0 0.00 0.19 0.09 88 1016.5
20260507220205 47 46 0.0 2.0 0.00 0.20 0.09 88 1016.4
20260507215706 47 89 0.0 2.0 0.00 0.20 0.09 88 1016.4
20260507214705 47 89 1.0 2.0 0.00 0.22 0.09 88 1016.3
20260507214206 48 89 1.0 2.0 0.00 0.22 0.09 88 1016.2
20260507213705 48 63 2.0 2.0 0.00 0.22 0.09 88 1016.1
20260507212705 48 72 1.0 2.0 0.00 0.22 0.09 87 1016.1
20260507211705 48 72 0.0 1.0 0.00 0.23 0.09 87 1016.1
20260507211205 48 89 0.0 1.0 0.00 0.23 0.09 87 1016.0
20260507210206 49 20 0.0 2.0 0.00 0.23 0.09 87 1016.1
20260507205706 49 89 0.0 2.0 0.00 0.23 0.09 87 1016.2
20260507205205 49 63 1.0 2.0 0.00 0.23 0.09 86 1016.0
20260507204705 49 1 1.0 2.0 0.00 0.23 0.09 87 1016.0
20260507204206 49 28 0.0 1.0 0.00 0.23 0.09 86 1016.0
20260507203705 49 89 0.0 1.0 0.00 0.23 0.09 86 1015.9
20260507202205 49 46 0.0 2.0 0.00 0.23 0.09 86 1015.9
20260507201705 49 89 0.0 3.0 0.00 0.23 0.09 86 1015.7
20260507201205 49 72 1.0 3.0 0.00 0.24 0.09 86 1015.8
20260507200706 49 63 1.0 3.0 0.00 0.24 0.09 86 1015.7
20260507195705 49 58 1.0 3.0 0.00 0.25 0.09 85 1015.6
20260507195205 50 56 1.0 3.0 0.00 0.25 0.09 85 1015.6
20260507194206 50 63 0.0 1.0 0.00 0.26 0.09 85 1015.5
20260507193705 50 89 0.0 1.0 0.00 0.26 0.09 85 1015.5
20260507193206 50 89 0.0 2.0 0.00 0.26 0.09 85 1015.5
20260507192705 50 89 1.0 2.0 0.00 0.27 0.09 85 1015.5
20260507192207 50 46 1.0 2.0 0.00 0.29 0.09 84 1015.4
20260507191706 50 63 1.0 2.0 0.00 0.31 0.09 84 1015.3
20260507191205 51 46 1.0 2.0 0.00 0.33 0.09 84 1015.3
20260507190705 51 63 1.0 2.0 0.00 0.34 0.09 84 1015.3
20260507190206 51 51 1.0 2.0 0.00 0.34 0.09 84 1015.1
20260507185705 51 46 1.0 2.0 0.00 0.34 0.09 84 1015.1
20260507185205 51 46 1.0 3.0 0.00 0.34 0.09 84 1015.1
20260507184705 51 35 1.0 3.0 0.00 0.34 0.09 84 1015.0
20260507184206 51 1 1.0 4.0 0.00 0.34 0.09 84 1015.0
20260507183705 51 32 2.0 5.0 0.00 0.34 0.09 85 1015.0
20260507183205 52 13 2.0 5.0 0.00 0.34 0.09 85 1015.0
20260507182705 52 342 3.0 7.0 0.00 0.34 0.09 85 1015.0
20260507182206 52 32 3.0 7.0 0.00 0.34 0.09 85 1015.0
20260507181722 52 13 3.0 7.0 0.00 0.34 0.09 85 1015.0
20260507181205 52 351 2.0 6.0 0.00 0.34 0.09 85 1014.8
20260507180705 52 324 2.0 6.0 0.00 0.34 0.09 85 1014.8
20260507180205 52 324 2.0 5.0 0.00 0.34 0.09 85 1014.9
20260507175205 52 351 2.0 5.0 0.00 0.34 0.09 85 1014.9
20260507174705 52 295 2.0 5.0 0.00 0.34 0.09 85 1014.9
20260507174205 52 338 2.0 5.0 0.00 0.34 0.09 85 1014.8
20260507173707 52 269 2.0 6.0 0.00 0.34 0.09 85 1014.8
20260507173205 52 283 2.0 6.0 0.00 0.34 0.09 86 1014.8
20260507172206 52 250 3.0 7.0 0.00 0.34 0.09 85 1014.6
20260507171705 52 245 4.0 7.0 0.00 0.34 0.09 85 1014.7
20260507171205 52 248 5.0 7.0 0.00 0.34 0.09 85 1014.5
20260507170705 52 205 4.0 7.0 0.00 0.34 0.09 85 1014.4
20260507170216 52 229 3.0 6.0 0.00 0.34 0.09 86 1014.4
20260507165205 52 253 3.0 6.0 0.00 0.34 0.09 86 1014.5
20260507164705 52 279 3.0 6.0 0.00 0.34 0.09 85 1014.5
20260507164207 52 229 3.0 6.0 0.00 0.34 0.09 86 1014.4
20260507163705 52 205 3.0 6.0 0.00 0.34 0.09 86 1014.5
20260507163206 52 233 3.0 6.0 0.00 0.34 0.09 86 1014.5
20260507162706 52 236 3.0 8.0 0.00 0.34 0.09 86 1014.5
20260507161205 52 248 3.0 6.0 0.00 0.34 0.09 85 1014.4
20260507160715 52 207 3.0 5.0 0.00 0.34 0.09 84 1014.5
20260507160205 52 240 2.0 5.0 0.00 0.34 0.09 85 1014.5
20260507155704 52 274 2.0 6.0 0.00 0.34 0.09 86 1014.4
20260507155206 52 314 2.0 6.0 0.00 0.34 0.09 86 1014.4
20260507154706 51 269 3.0 6.0 0.00 0.34 0.09 86 1014.5
20260507154206 51 277 2.0 6.0 0.00 0.34 0.09 87 1014.5
20260507153705 51 257 2.0 5.0 0.00 0.34 0.09 88 1014.5
20260507153205 51 306 2.0 5.0 0.00 0.34 0.09 88 1014.5
20260507152705 51 239 2.0 7.0 0.00 0.34 0.09 88 1014.4
20260507152205 51 258 3.0 7.0 0.00 0.34 0.09 87 1014.4
20260507151705 51 274 3.0 7.0 0.00 0.34 0.09 88 1014.4
20260507151205 51 253 3.0 6.0 0.00 0.34 0.09 89 1014.3
20260507150705 50 207 4.0 7.0 0.00 0.34 0.09 88 1014.4
20260507150205 51 259 4.0 7.0 0.00 0.34 0.09 87 1014.3
20260507145705 51 300 4.0 8.0 0.00 0.34 0.09 86 1014.4
20260507145208 51 231 5.0 9.0 0.00 0.34 0.09 86 1014.4
20260507144206 51 250 5.0 10.0 0.00 0.34 0.09 86 1014.3
20260507143707 50 250 6.0 10.0 0.00 0.34 0.09 87 1014.3
20260507143205 50 255 6.0 9.0 0.00 0.34 0.09 87 1014.4
20260507142705 50 234 6.0 9.0 0.00 0.34 0.09 88 1014.5
20260507142206 50 252 5.0 9.0 0.00 0.34 0.09 88 1014.5
20260507141708 49 231 5.0 10.0 0.00 0.34 0.09 89 1014.4
20260507141206 49 220 5.0 10.0 0.00 0.34 0.09 88 1014.4
20260507140705 49 248 6.0 11.0 0.00 0.34 0.09 87 1014.3
20260507135705 50 243 6.0 11.0 0.00 0.34 0.09 87 1014.3
20260507135206 50 252 6.0 10.0 0.00 0.34 0.09 87 1014.3
20260507134705 50 288 6.0 10.0 0.00 0.34 0.09 87 1014.3
20260507134205 50 252 5.0 10.0 0.00 0.34 0.09 87 1014.3
20260507133705 50 238 4.0 8.0 0.00 0.34 0.09 88 1014.3
20260507133206 49 252 4.0 10.0 0.00 0.34 0.09 88 1014.2
20260507132706 49 312 5.0 10.0 0.00 0.34 0.09 88 1014.3
20260507132205 49 315 5.0 10.0 0.00 0.34 0.09 87 1014.3
20260507131705 50 281 4.0 13.0 0.00 0.34 0.09 87 1014.2
20260507131205 50 310 4.0 13.0 0.00 0.34 0.09 87 1014.2
20260507130705 50 302 5.0 13.0 0.00 0.34 0.09 87 1014.2
20260507130205 50 284 5.0 9.0 0.00 0.34 0.09 86 1014.1
20260507125705 51 252 4.0 11.0 0.00 0.34 0.09 87 1014.0
20260507125204 51 314 5.0 11.0 0.00 0.34 0.09 86 1013.9
20260507124714 51 248 6.0 11.0 0.00 0.34 0.09 85 1013.9
20260507124205 51 272 5.0 11.0 0.00 0.34 0.09 86 1013.9
20260507123205 51 308 6.0 11.0 0.00 0.34 0.09 87 1013.8
20260507122706 51 264 7.0 11.0 0.00 0.34 0.09 88 1013.7
20260507121205 50 252 4.0 9.0 0.00 0.34 0.09 89 1013.6
20260507120205 49 314 5.0 10.0 0.00 0.34 0.09 89 1013.6
20260507115705 49 233 5.0 10.0 0.00 0.34 0.09 89 1013.6
20260507115205 49 219 5.0 12.0 0.00 0.34 0.09 89 1013.6
20260507114705 49 284 5.0 12.0 0.00 0.34 0.09 89 1013.6
20260507114206 49 309 5.0 9.0 0.00 0.34 0.09 90 1013.6
20260507113706 49 219 5.0 9.0 0.00 0.34 0.09 90 1013.6
20260507113205 49 274 4.0 10.0 0.00 0.34 0.09 90 1013.6
20260507112706 48 269 5.0 13.0 0.00 0.34 0.09 90 1013.5
20260507112206 48 300 6.0 14.0 0.00 0.34 0.09 90 1013.6
20260507111706 48 255 7.0 14.0 0.00 0.34 0.09 90 1013.5
20260507111206 48 241 7.0 12.0 0.00 0.34 0.09 90 1013.5
20260507110205 48 238 7.0 11.0 0.00 0.34 0.09 90 1013.5
20260507105706 48 283 6.0 11.0 0.00 0.34 0.09 90 1013.5
20260507105206 48 297 6.0 11.0 0.00 0.34 0.09 91 1013.4
20260507104205 48 243 6.0 12.0 0.00 0.34 0.09 91 1013.4
20260507103705 49 238 6.0 12.0 0.00 0.34 0.09 92 1013.4
20260507103208 48 222 7.0 12.0 0.00 0.34 0.09 93 1013.4
20260507102705 48 259 6.0 11.0 0.00 0.34 0.09 93 1013.4
20260507102206 48 285 6.0 11.0 0.00 0.34 0.09 93 1013.4
20260507101705 48 231 5.0 11.0 0.01 0.34 0.09 93 1013.4
20260507101205 48 243 6.0 12.0 0.01 0.34 0.09 94 1013.3
20260507100205 47 231 6.0 12.0 0.01 0.34 0.09 94 1013.3
20260507095705 47 217 5.0 7.0 0.01 0.34 0.09 94 1013.2
20260507095205 47 276 3.0 6.0 0.01 0.34 0.09 94 1013.2
20260507094705 47 283 3.0 6.0 0.01 0.34 0.09 94 1013.1
20260507093205 47 286 4.0 9.0 0.01 0.34 0.09 94 1013.0
20260507092705 47 309 4.0 8.0 0.01 0.34 0.09 94 1012.7
20260507092206 47 284 4.0 7.0 0.00 0.33 0.09 94 1012.7
20260507091225 47 278 3.0 7.0 0.00 0.33 0.09 94 1012.7
20260507090705 47 222 3.0 5.0 0.00 0.33 0.09 94 1012.6
20260507090205 47 231 2.0 5.0 0.00 0.33 0.09 94 1012.6
20260507085705 47 284 3.0 5.0 0.00 0.33 0.09 94 1012.5
20260507085206 47 295 3.0 6.0 0.00 0.33 0.09 94 1012.5
20260507084705 47 272 2.0 8.0 0.00 0.33 0.09 94 1012.3
20260507084205 47 302 3.0 8.0 0.00 0.33 0.09 94 1012.3
20260507083205 47 316 5.0 9.0 0.00 0.33 0.09 94 1012.2
20260507082705 47 279 5.0 11.0 0.00 0.33 0.09 94 1012.2
20260507081706 47 300 5.0 11.0 0.00 0.33 0.09 94 1012.0
20260507081205 47 312 4.0 10.0 0.00 0.33 0.09 94 1012.0
20260507080705 47 257 4.0 7.0 0.00 0.33 0.09 94 1012.0
20260507080205 47 286 4.0 9.0 0.00 0.33 0.09 94 1011.9
20260507075705 47 274 4.0 9.0 0.00 0.33 0.09 94 1011.9
20260507075205 47 269 4.0 11.0 0.00 0.33 0.09 94 1011.9
20260507074705 47 274 5.0 11.0 0.00 0.33 0.09 94 1011.8
20260507074206 47 324 4.0 7.0 0.00 0.33 0.09 94 1011.7
20260507073705 47 258 4.0 7.0 0.00 0.33 0.09 94 1011.6
20260507073205 47 32 4.0 6.0 0.00 0.33 0.09 94 1011.5
20260507072705 47 264 3.0 8.0 0.00 0.33 0.09 94 1011.4
20260507072206 47 236 3.0 8.0 0.00 0.33 0.09 94 1011.4
20260507071205 47 277 4.0 8.0 0.00 0.33 0.09 94 1011.2
20260507070705 48 262 4.0 8.0 0.01 0.33 0.09 94 1011.1
20260507070205 48 269 4.0 7.0 0.01 0.33 0.09 94 1011.1
20260507065705 48 276 3.0 9.0 0.01 0.33 0.09 94 1011.2